AO-07 1 07530U 74089B 19199.86018170 -.00000043 00000-0 10390-4 0 9998 2 07530 101.7456 167.2143 0011780 290.3883 83.8751 12.53638884 44306 UO-11 1 14781U 84021B 19199.58855116 .00000043 00000-0 11432-4 0 9996 2 14781 97.6091 222.8909 0007558 212.7898 147.2848 14.83095859903197 LO-19 1 20442U 90005G 19198.64738777 -.00000006 00000-0 14156-4 0 9991 2 20442 98.6496 140.6009 0012888 66.2996 293.9539 14.32928926540523 HUBBLE 1 20580U 90037B 19199.08371528 .00000330 00000-0 90979-5 0 9992 2 20580 28.4705 17.5823 0002855 81.6502 215.3868 15.09245380405336 MET-2/21 1 22782U 93055A 19199.40412056 .00000077 00000-0 55347-4 0 9996 2 22782 82.5501 139.4977 0023740 94.4213 24.4592 13.83820135306978 AO-27 1 22825U 93061C 19199.51558848 -.00000025 00000-0 84706-5 0 9999 2 22825 98.9042 188.8349 0007286 273.0205 87.0143 14.30062465346216 IO-26 1 22826U 93061D 19199.79011034 -.00000017 00000-0 11275-4 0 9992 2 22826 98.8982 189.1033 0007805 259.1869 100.8434 14.30396220346453 FO-29 1 24278U 96046B 19198.83233514 -.00000049 00000-0 -15191-4 0 9991 2 24278 098.5411 348.2936 0350703 164.2927 196.9430 13.53092552131492 NOAA-15 1 25338U 98030A 19199.58948027 .00000057 00000-0 42453-4 0 9997 2 25338 98.7452 220.8007 0011025 150.7378 209.4421 14.25921789101515 GO-32 1 25397U 98043D 19199.41860369 -.00000021 00000-0 10156-4 0 9997 2 25397 98.6896 139.2044 0000934 12.3473 347.7729 14.23667772 92109 ISS 1 25544U 98067A 19200.03590042 .00000601 00000-0 18018-4 0 9994 2 25544 51.6428 203.2554 0006990 155.1170 65.7037 15.50986811180194 NO-44 1 26931U 01043C 19199.63371343 -.00000041 00000-0 16149-4 0 9999 2 26931 67.0518 286.4156 0007150 277.1382 82.8906 14.30547115929256 SO-50 1 27607U 02058C 19199.50308776 -.00000056 00000-0 13092-4 0 9993 2 27607 64.5559 318.4515 0080317 250.7906 108.4493 14.75558996891436 CO-55 1 27844U 03031E 19199.83489077 .00000019 00000-0 28238-4 0 9994 2 27844 98.6833 207.5971 0008837 309.0512 50.9878 14.22185627832571 CO-57 1 27848U 03031J 19198.49850824 .00000020 00000-0 28876-4 0 9991 2 27848 98.6910 206.7871 0008998 325.8266 34.2331 14.21779889832231 RS-22 1 27939U 03042A 19199.85892639 -.00000008 00000-0 71152-5 0 9998 2 27939 98.0448 335.0927 0012269 336.9874 23.0782 14.66790716844964 NOAA-18 1 28654U 05018A 19199.60103993 .00000053 00000-0 53383-4 0 9993 2 28654 99.0936 247.0159 0015368 94.0878 266.2050 14.12438573729748 CO-58 1 28895U 05043F 19199.38266364 .00000061 00000-0 20660-4 0 9996 2 28895 97.9632 341.1023 0015443 256.6516 103.2965 14.63675495731829 Falconsat-3 1 30776U 07006E 19198.60783976 .00001200 00000-0 34661-4 0 9997 2 30776 35.4346 266.1207 0002653 357.3534 2.7178 15.36275734685131 CO-65 1 32785U 08021C 19199.67083507 .00000115 00000-0 17977-4 0 9993 2 32785 97.5497 197.9719 0013611 157.0767 203.1060 14.88321399608145 AAUSAT2 1 32788U 08021F 19199.03767586 .00000263 00000-0 29134-4 0 9994 2 32788 97.4957 213.4703 0013432 100.4436 259.8300 14.94746768609303 DO-64 1 32789U 08021G 19198.70123547 .00000716 00000-0 51812-4 0 9992 2 32789 97.4622 247.4888 0012981 33.5062 326.6984 15.07001058611331 CO-66 1 32791U 08021J 19199.70596879 .00000225 00000-0 28159-4 0 9991 2 32791 97.5276 204.0094 0014505 133.2418 227.0014 14.90836196608586 RS-30 1 32953U 08025A 19199.74559204 .00000021 00000-0 75656-4 0 9998 2 32953 82.5023 126.0783 0020434 63.4372 296.8801 12.43090721506047 PRISM 1 33493U 09002B 19199.01230527 .00000522 00000-0 51207-4 0 9990 2 33493 98.1219 121.0798 0016876 85.8806 274.4343 14.96680506569535 NOAA-19 1 33591U 09005A 19199.58463506 .00000037 00000-0 45652-4 0 9997 2 33591 99.1806 191.4327 0013017 296.9147 63.0693 14.12365590538125 TISAT-1 1 36799U 10035E 19199.47692947 .00000048 00000-0 10951-4 0 9992 2 36799 98.1593 352.6224 0012004 355.1529 4.9570 14.91118866489205 JUGNU 1 37839U 11058B 19199.20201031 .00000282 00000-0 83589-5 0 9993 2 37839 19.9603 155.8208 0018704 292.5104 189.5690 14.12654117401434 SRMSAT 1 37841U 11058D 19199.21369566 .00000269 00000-0 26681-5 0 9990 2 37841 19.9706 213.1398 0011845 159.9609 275.9676 14.10635080400860 AO-71 1 37854U 11061E 19199.71441515 .00000835 00000-0 50567-4 0 9996 2 37854 101.6988 113.3888 0160693 336.7722 22.6284 15.06477958421518 HRBE 1 37855U 11061F 19199.04215891 .00000875 00000-0 51696-4 0 9997 2 37855 101.7118 109.7044 0173541 349.8887 9.8850 15.05481697421195 ALMASAT-1 1 38078U 12006B 19199.40310894 .00021063 41551-5 11663-3 0 9996 2 38078 69.4239 181.2631 0160128 216.5718 300.0796 15.64290075402135 HORYU-2 1 38340U 12025D 19198.79907097 .00000112 00000-0 24404-4 0 9996 2 38340 98.3270 238.2604 0012230 37.5350 322.6710 14.75728778385457 RS-40 1 38735U 12041C 19199.09705550 .00000019 00000-0 68509-4 0 9996 2 38735 82.4732 209.7494 0016920 167.6788 192.4708 12.42579055316203 BEESAT-3 1 39135U 13015F 19199.39923388 .00000421 00000-0 30729-4 0 9997 2 39135 64.8701 302.9040 0025251 315.9226 43.9887 15.17506654344752 BEESAT-2 1 39136U 13015G 19199.38150709 .00000336 00000-0 26936-4 0 9996 2 39136 64.8712 306.8718 0020683 299.1724 60.7332 15.16935033344679 ZACUBE-1 1 39417U 13066B 19199.02506481 .00000122 00000-0 21827-4 0 9994 2 39417 97.5616 210.8779 0057520 298.6248 60.9187 14.81125164305385 TRITON-1 1 39427U 13066M 19199.85871304 .00000154 00000-0 32170-4 0 9993 2 39427 97.6778 175.3746 0115324 69.1480 292.2030 14.67851859302768 GOMX-1 1 39430U 13066Q 19199.86188731 .00000087 00000-0 24505-4 0 9991 2 39430 97.7495 154.4316 0151414 158.6596 202.1018 14.59261134301006 LO-74 1 39440U 13066AA 19199.78580724 .00000112 00000-0 22648-4 0 9996 2 39440 97.6025 196.4462 0079958 348.3850 11.5514 14.75863533304416 AO-73 1 39444U 13066AE 19199.00943087 .00000159 00000-0 26036-4 0 9996 2 39444 97.5596 212.8374 0056545 292.2821 67.2403 14.81945707304279 SPROUT 1 39770U 14029E 19199.83794712 .00000202 00000-0 28509-4 0 9994 2 39770 97.8859 302.9365 0008894 356.2764 3.8339 14.87362191279314 DUCHIFAT-1 1 40021U 14033M 19199.75106681 .00000254 00000-0 31830-4 0 9991 2 40021 97.9234 124.4445 0011935 316.7164 43.3115 14.90643678276026 NANOSATCBR1 1 40024U 14033Q 19198.71912621 .00000221 00000-0 28976-4 0 9999 2 40024 097.9131 120.7583 0011388 324.5556 035.4904 14.89855945275242 EO-79 1 40025U 14033R 19199.73984114 .00000150 00000-0 21965-4 0 9991 2 40025 97.9051 119.3758 0011668 326.9201 33.1285 14.88954034275791 DTUSAT-2 1 40030U 14033W 19199.00468173 .00000122 00000-0 19124-4 0 9992 2 40030 97.8969 116.7532 0011078 325.2015 34.8476 14.88545486275613 EO-80 1 40032U 14033Y 19199.34749006 .00000114 00000-0 18367-4 0 9997 2 40032 97.8976 117.0960 0011010 324.8412 35.2077 14.88488394275654 ANTELSAT 1 40034U 14033AA 19199.23283526 .00000110 00000-0 23718-4 0 9999 2 40034 97.7574 65.1494 0058910 2.7272 357.4247 14.74111845273026 VELOX-1 1 40057U 14034E 19199.80991870 .00000194 00000-0 34683-4 0 9991 2 40057 98.2384 323.5519 0011917 133.4993 226.7205 14.77678134272217 DAURIA DX 1 1 40071U 14037C 19199.81719720 .00000056 00000-0 14644-4 0 9995 2 40071 98.4295 355.2428 0009392 124.9721 235.2378 14.81277006271713 UKUBE-1 1 40074U 14037F 19199.76840590 .00000177 00000-0 28451-4 0 9997 2 40074 98.4402 3.4388 0005984 109.0375 251.1518 14.84066231272112 HODOYOSHI-1 1 40299U 14070B 19199.73247976 .00000347 00000-0 17523-4 0 9996 2 40299 97.3490 278.8623 0011567 300.8538 158.0923 15.23387574260844 CHUBUSAT-1 1 40300U 14070C 19199.78045054 .00000280 00000-0 15212-4 0 9996 2 40300 97.3249 273.1988 0019531 313.6957 194.6546 15.22107725260593 QSAT-EOS 1 40301U 14070D 19199.81290284 .00000832 00000-0 34985-4 0 9999 2 40301 97.3268 276.4165 0024379 294.2708 204.7715 15.25975004260881 FIREBIRD FU3 1 40377U 15003B 19199.20025626 .00001651 00000-0 68636-4 0 9998 2 40377 99.1143 185.4786 0126836 352.7643 7.1751 15.18866847246406 FIREBIRD FU4 1 40378U 15003C 19199.71432770 .00001640 00000-0 68183-4 0 9992 2 40378 99.1147 186.1759 0127010 350.9333 8.9603 15.18876440246483 GRIFEX 1 40379U 15003D 19199.63878280 .00001226 00000-0 56081-4 0 9998 2 40379 99.1140 179.9662 0135465 10.0399 350.3485 15.15535942246128 NO-84 1 40654U 15025D 19198.14029793 .00008601 00000 0 12006-3 0 6695 2 40654 54.9896 42.9743 0138539 40.4262 320.6962 15.47448927116858 NO-83 1 40655U 15025E 19198.46975722 .00047561 11459-4 21395-3 0 08206 2 40655 054.9661 279.6494 0053089 109.3519 251.3176 15.82614120118271 DEORBITSAIL 1 40719U 15032E 19199.67283581 .00000227 00000-0 39662-4 0 9992 2 40719 97.9054 90.8848 0015439 204.9430 155.1036 14.76754491216680 NUDT-PHONESAT 1 40900U 15049B 19199.73838934 .00001299 00000-0 58394-4 0 9990 2 40900 97.4361 208.7766 0014590 80.4076 10.4951 15.22852769212232 XW-2A 1 40903U 15049E 19199.82596259 .00001245 00000-0 31233-4 0 9998 2 40903 97.3357 242.7572 0014805 41.5962 45.9137 15.41919643214892 XW-2C 1 40906U 15049H 19199.70606267 .00000149 00000-0 11262-4 0 9991 2 40906 97.4672 201.2856 0016408 94.6634 353.3816 15.15690904211543 XW-2D 1 40907U 15049J 19199.74572446 .00000398 00000-0 24207-4 0 9996 2 40907 97.4644 201.0031 0015808 91.9894 354.7155 15.15881574211565 LILACSAT-2 1 40908U 15049K 19199.80769969 .00000505 00000-0 31462-4 0 9993 2 40908 97.4783 199.8819 0017428 97.7932 25.7505 15.13814600211361 XW-2E 1 40909U 15049L 19199.70501049 .00000466 00000-0 26311-4 0 9999 2 40909 97.4591 203.8138 0015250 88.2964 1.0600 15.17809069211742 XW-2F 1 40910U 15049M 19199.81793001 .00000690 00000-0 37888-4 0 9994 2 40910 97.4618 203.1022 0016503 85.2289 38.1496 15.17324418211584 XW-2B 1 40911U 15049N 19199.71391554 .00000312 00000-0 19756-4 0 9996 2 40911 97.4673 201.6254 0015730 92.9190 354.6623 15.15811365211457 DCBB 1 40912U 15049P 19199.86168734 .00000736 00000-0 37666-4 0 9995 2 40912 97.4488 206.8222 0016631 68.4137 15.0187 15.19639680211897 TW-1C 1 40926U 15051B 19199.81319262 .00007285 00000-0 10540-3 0 9999 2 40926 97.1336 245.9543 0006033 257.1163 192.3149 15.56188702214842 TW-1A 1 40928U 15051D 19199.82076010 .00002031 00000-0 51335-4 0 9995 2 40928 97.1434 230.4571 0010370 332.9617 112.2318 15.40901767213810 IO-86 1 40931U 15052B 19198.73032141 .00000451 00000-0 -26365-4 0 9996 2 40931 6.0013 209.5351 0012806 209.3049 150.7792 14.76607662205562 LQSat 1 40958U 15057A 19199.45128760 -.00000009 00000-0 62397-5 0 9998 2 40958 97.8973 267.8424 0019091 142.4685 217.7860 14.73083904203188 AO-85 1 40967U 15058D 19198.32034542 .00000042 00000-0 23175-4 0 07464 2 40967 064.7784 071.4411 0197246 193.6886 165.8827 14.75962069111966 ATHENOXAT-1 1 41168U 15077C 19199.82191224 .00001351 00000-0 35772-4 0 9996 2 41168 14.9896 355.2605 0011449 152.9417 207.1502 15.13665387198553 ChubuSat-2 1 41338U 16012B 19198.76867268 .00000208 00000-0 94745-5 0 9991 2 41338 31.0038 319.9835 0013793 30.5340 329.6096 15.00159017187282 ChubuSat-3 1 41339U 16012C 19199.73271375 .00000215 00000-0 99537-5 0 9990 2 41339 31.0121 311.9091 0013638 47.1413 313.0367 15.00334499187428 Horyu-4 1 41340U 16012D 19198.69358347 .00000308 00000-0 16722-4 0 9998 2 41340 31.0054 309.6482 0013919 56.0739 304.1218 15.01276760187372 OUFTI-1 1 41458U 16025C 19199.29154173 .00000120 00000-0 10901-4 0 9995 2 41458 98.1020 287.6406 0164919 257.4570 100.8166 15.05846468177023 e-st@r-II 1 41459U 16025D 19199.71381631 .00001225 00000-0 66963-4 0 9990 2 41459 98.1038 287.7274 0166871 257.3833 100.8682 15.05492883177062 AAUSAT4 1 41460U 16025E 19199.71849335 .00001673 00000-0 87967-4 0 9996 2 41460 98.0975 289.0498 0156655 249.7291 108.7054 15.07383905177198 LO-87 1 41557U 16033B 19199.85585933 .00000730 00000-0 30061-4 0 9994 2 41557 97.4183 287.1813 0013672 184.3641 175.7481 15.27254174174690 NuSat2 1 41558U 16033C 19199.78733340 .00000756 00000-0 29363-4 0 9995 2 41558 97.4210 288.2566 0012692 184.7273 175.3849 15.29161892174730 Lapan A3 1 41603U 16040E 19199.81002619 .00000121 00000-0 88288-5 0 9994 2 41603 97.3589 257.7773 0012137 297.7611 197.2928 15.19724668170311 Swayam 1 41607U 16040J 19199.42254950 .00000812 00000-0 37103-4 0 9998 2 41607 97.3638 260.9143 0011726 289.2965 70.7003 15.23345720170400 Pratham 1 41783U 16059A 19199.14539099 .00000033 00000-0 15698-4 0 9992 2 41783 98.0656 258.0744 0032237 292.3012 67.4773 14.62999696149857 AlSat 1N 1 41789U 16059G 19199.72396667 .00000060 00000-0 20377-4 0 9994 2 41789 98.0682 260.6991 0027165 279.4931 80.3192 14.64250165150040 ScatSat 1 41790U 16059H 19199.78818318 .00000015 00000-0 14693-4 0 9998 2 41790 98.2072 244.1422 0004440 221.3486 138.7337 14.50885093148691 TY-1 1 41844U 16066D 19199.83698124 .00000506 00000-0 23579-4 0 9991 2 41844 97.4037 206.8493 0016706 82.8436 39.5895 15.24309140149288 Pegasus-1 1 41846U 16066F 19198.69477688 .00000207 00000-0 41215-4 0 9991 2 41846 098.7093 239.3552 0368221 152.0386 210.1134 14.37587374140722 CAS-2T 1 41847U 16066G 19199.18196387 .00000021 00000-0 13060-4 0 9992 2 41847 98.7035 240.3795 0366628 147.0777 215.3833 14.37994508141238 EO-88 1 42017U 17008BX 19199.14850345 .00000878 00000-0 37390-4 0 9998 2 42017 97.4017 265.9378 0007837 71.6917 288.5173 15.25578560134411 NJUST-1 1 42722U 98067MB 19199.83834184 .01466535 12040-4 39414-3 0 9990 2 42722 51.6091 105.1415 0009304 255.2272 219.7689 16.27370765123292 nSIGHT1 1 42726U 98067MF 19199.46561898 .00014216 00000-0 10952-3 0 9991 2 42726 51.6350 156.3123 0003565 300.9653 59.0994 15.72278286122503 Aoxiang-1 1 42735U 98067MQ 19177.55530794 .07215990 12478-4 53264-3 0 9996 2 42735 51.6164 219.6428 0005776 333.1578 33.8960 16.39815471120909 CAS-4B 1 42759U 17034B 19199.76690287 -.00000000 00000-0 13517-4 0 9998 2 42759 43.0197 65.5964 0010184 76.5133 324.7151 15.09598814115388 CAS-4A 1 42761U 17034D 19199.79522168 -.00000002 00000-0 13426-4 0 9997 2 42761 43.0197 64.9591 0010632 77.3789 326.8895 15.09675928115384 UCLSat 1 42765U 17036A 19198.84493190 .00000706 00000-0 33122-4 0 9995 2 42765 97.3491 256.2299 0013000 123.0114 237.2374 15.22779721114906 NIUSat 1 42766U 17036B 19199.10690197 .00000600 00000-0 29906-4 0 9990 2 42766 97.3487 254.8370 0017293 115.0926 245.2106 15.21137997114708 LituanicaSAT 2 1 42768U 17036D 19199.15121182 .00001266 00000-0 56854-4 0 9991 2 42768 97.3527 256.1473 0016797 114.3511 245.9481 15.22859466114799 Aalto 1 1 42775U 17036L 19199.39210475 .00000477 00000-0 24261-4 0 9999 2 42775 97.3475 255.4457 0015614 113.7238 246.5638 15.21363530114724 URSA MAIOR 1 42776U 17036M 19199.74487687 .00000514 00000-0 25806-4 0 9998 2 42776 97.3484 255.9473 0015475 112.5953 247.6922 15.21498555114784 Max Valier Sat 1 42778U 17036P 19198.71901955 .00000600 00000-0 29177-4 0 9996 2 42778 97.3525 255.7440 0014002 119.0762 241.1878 15.22046987114653 Pegasus 1 42784U 17036V 19198.74266630 .00000709 00000-0 33506-4 0 9991 2 42784 97.3496 255.9417 0013527 124.0392 236.2131 15.22527107114687 NUDATSat 1 42787U 17036Y 19199.11624600 .00001184 00000-0 52478-4 0 9998 2 42787 97.3522 257.0314 0011736 116.9638 243.2800 15.23505474114621 SUCHAI 1 1 42788U 17036Z 19198.74184292 .00000853 00000-0 39213-4 0 9999 2 42788 97.3501 256.2590 0013123 123.1543 237.0955 15.22948248114770 SKCUBE 1 42789U 17036AA 19198.82523056 .00000768 00000-0 35694-4 0 9998 2 42789 097.3496 256.2780 0013006 122.9748 237.2741 15.22845894114700 VZLUSAT 1 1 42790U 17036AB 19198.84037803 .00000967 00000-0 43392-4 0 9997 2 42790 097.3512 256.7648 0012603 121.9892 238.2572 15.23502292114739 VENTA 1 1 42791U 17036AC 19198.79904439 .00000735 00000-0 34280-4 0 9999 2 42791 097.3495 256.3038 0012615 123.3921 236.8525 15.22857784114696 Robusta 1B 1 42792U 17036AD 19199.14713135 .00000803 00000-0 37016-4 0 9997 2 42792 97.3497 256.7478 0012574 122.4475 237.7980 15.23014431114778 D-SAT 1 42794U 17036AF 19199.60299319 .00000226 00000-0 24907-4 0 9997 2 42794 97.5372 242.9858 0127559 42.5539 318.5480 14.91108567112797 TechnoSat 1 42829U 17042E 19199.74495801 -.00000034 00000-0 19566-5 0 9996 2 42829 97.5607 91.3724 0013327 325.7127 34.3230 14.90980965109411 TOMSK-TPU 120 1 42910U 98067MZ 19199.71128168 .00049855 00000-0 19085-3 0 9996 2 42910 51.6330 132.5249 0000982 341.6847 91.3474 15.86928887109790 TANYUSHA 1 1 42911U 98067NA 19199.81810125 .00407226 96033-4 38050-3 0 9997 2 42911 51.6184 116.2391 0001709 209.5640 252.2299 16.11551689109992 TANYUSHA 2 1 42912U 98067NB 19199.82416032 .00100189 15184-4 25247-3 0 9998 2 42912 51.6347 124.9602 0001371 72.9069 31.0221 15.95517277109902 TNS 0-2 1 42914U 98067ND 19199.28163518 .00049778 00000-0 18291-3 0 9992 2 42914 51.6332 135.1747 0000780 336.0418 24.0550 15.87763613109711 QIKCOM-1 1 42983U 98067NF 19199.44819273 .00001874 00000-0 30067-4 0 9993 2 42983 51.6382 190.8274 0003493 234.0746 125.9923 15.58988600 97983 AO-91 1 43017U 17073E 19199.30796196 .00000494 00000-0 43466-4 0 9997 2 43017 97.7225 119.5088 0259591 62.1410 300.5841 14.78569687 89634 EcAMSat 1 43019U 98067NG 19199.81869301 .00003376 00000-0 44720-4 0 9992 2 43019 51.6393 183.5959 0003954 215.0840 144.9894 15.61487317180435 PICSAT 1 43132U 18004X 19198.86394806 .00000791 00000-0 35994-4 0 9999 2 43132 097.4871 266.6238 0010723 144.6132 215.5819 15.23612316083943 AO-92 1 43137U 18004AC 19199.18605338 .00000585 00000-0 27502-4 0 9992 2 43137 97.4861 266.9214 0010250 144.9559 215.2355 15.23494853 83985 TianYi 2 1 43155U 18008A 19199.81614045 .00000898 00000-0 57197-4 0 9991 2 43155 97.4863 271.7232 0016844 217.4843 283.7726 15.11169110 82374 Zhou Enlai 1 43156U 18008B 19199.80658370 .00000764 00000-0 49939-4 0 9997 2 43156 97.4907 271.6036 0013778 215.1369 284.5482 15.10672697 82349 TianYi 6 1 43158U 18008D 19199.79304627 .00000188 00000-0 15327-4 0 9994 2 43158 97.4855 271.0443 0012901 212.3450 284.4156 15.10259628 82304 S-Net G 1 43186U 18014G 19199.37699856 .00000055 00000-0 99433-5 0 9991 2 43186 97.7082 107.3988 0009302 267.1350 92.8807 14.96657685 79570 S-Net H 1 43187U 18014H 19199.17625311 .00000080 00000-0 12120-4 0 9990 2 43187 97.7080 107.1885 0009304 267.8981 92.1175 14.96657619 79547 S-Net J 1 43188U 18014J 19199.37662518 .00000081 00000-0 12221-4 0 9996 2 43188 97.7082 107.4037 0009298 267.1937 92.8221 14.96657451 79574 S-Net K 1 43189U 18014K 19199.71124420 -.00000010 00000-0 41875-5 0 9991 2 43189 97.7079 107.7130 0009299 265.7985 94.2174 14.96657280 78174 FMN 1 1 43192U 18015A 19198.93975691 .00001309 00000-0 56311-4 0 9994 2 43192 097.4023 326.3194 0015848 186.0715 174.0329 15.24331047080776 Shaonian Xing 1 43199U 18015H 19198.94100852 .00000855 00000-0 37247-4 0 9993 2 43199 097.3815 325.3856 0016638 197.6996 162.3662 15.24826747080824 1KUNS-PF 1 43466U 98067NP 19199.38537343 .00012999 00000-0 12471-3 0 9996 2 43466 51.6354 183.6168 0000497 34.9529 325.1500 15.67009284 67577 UBAKUSAT 1 43467U 98067NQ 19199.39793744 .00007019 00000-0 80652-4 0 9991 2 43467 51.6355 188.2041 0001775 164.6334 195.4715 15.63291941 67525 Irazu 1 43468U 98067NR 19198.42699850 .00019578 00000-0 16282-3 0 9998 2 43468 51.6342 184.6865 0000967 29.1443 330.9608 15.70153958167468 EnduroSat One 1 43551U 98067NZ 19198.52059022 .00010402 00000-0 11579-3 0 9994 2 43551 51.6355 195.0952 0004710 260.9511 99.0951 15.63490981 57586 EQUISat 1 43552U 98067PA 19198.46018976 .00008483 00000-0 10051-3 0 9991 2 43552 51.6367 196.9654 0005135 257.2672 102.7748 15.62159863 57517 UiTMSat 1 1 43589U 98067PD 19199.16465100 .00008786 00000-0 10321-3 0 9990 2 43589 51.6343 194.1122 0004532 270.7781 89.2694 15.62331118 53354 Maya 1 1 43590U 98067PE 19198.26389802 .00008492 00000-0 99951-4 0 9997 2 43590 51.6343 198.6012 0004659 267.2295 92.8166 15.62331611 53143 Bhutan 1 1 43591U 98067PF 19199.02106034 .00008914 00000-0 10433-3 0 9993 2 43591 51.6355 194.6805 0004781 271.1619 88.8827 15.62404924 53263 SiriusSat 1 1 43595U 98067PG 19198.89457891 .00008072 00000-0 98139-4 0 9996 2 43595 051.6345 196.8127 0002525 218.5473 141.5341 15.61562693052404 SiriusSat 2 1 43596U 98067PH 19199.82394102 .00007367 00000-0 90597-4 0 9992 2 43596 51.6357 192.5564 0003050 223.0636 137.0120 15.61419546 52540 Tanusha-3 1 43597U 98067PJ 19198.89597190 .00010995 00000-0 12409-3 0 9997 2 43597 051.6337 195.2947 0002440 241.9346 118.1402 15.63066770052422 SurfSat 1 43614U 18070B 19199.66599633 .00001575 00000-0 42748-4 0 9997 2 43614 93.0229 16.0304 0015619 180.7124 179.4109 15.37617427 47010 CP-7 DAVE 1 43615U 18070C 19199.15262117 .00001532 00000-0 41689-4 0 9992 2 43615 93.0227 15.8192 0015666 181.9777 178.1417 15.37530716 46933 ELFIN-B 1 43616U 18070D 19199.66885874 .00002369 00000-0 62990-4 0 9997 2 43616 93.0194 15.9434 0016472 183.9315 176.1813 15.38185371 47026 ELFIN-A 1 43617U 18070E 19199.66185683 .00002248 00000-0 59716-4 0 9997 2 43617 93.0249 16.1790 0015778 180.3932 179.7312 15.38233222 47022 STARS-Me Mother 1 43640U 98067PQ 19199.81600710 .00004762 00000-0 66754-4 0 9990 2 43640 51.6356 196.2443 0004674 206.0428 154.0330 15.58861048 44423 CubeBel 1 1 43666U 18083E 19199.81817718 .00000550 00000-0 30652-4 0 9995 2 43666 97.5183 224.0889 0016716 84.0720 2.0668 15.17620795 39855 Changshagaoxin 1 43669U 18083H 19198.87636940 .00000451 00000-0 26342-4 0 9990 2 43669 97.5048 222.3732 0012701 81.2999 278.9672 15.16816509 39659 Ten-Koh 1 43677U 18084G 19199.30173939 -.00000014 00000-0 43643-5 0 9993 2 43677 97.8548 312.8437 0016102 179.1596 180.9652 14.90176089 39026 PO-101 1 43678U 18084H 19199.79416443 -.00000393 00000-0 -33537-4 0 9998 2 43678 97.8539 313.9145 0009256 197.9817 162.1082 14.91556347 39132 IRVINE 01 1 43693U 18088D 19198.81803207 .00001516 00000-0 65308-4 0 9996 2 43693 85.0367 298.8803 0020808 87.1987 273.1636 15.21466599 37794 QO-100 1 43700U 18090A 19199.15121824 .00000134 00000-0 00000 0 0 9992 2 43700 0.0206 52.3460 0001863 79.1346 244.4515 1.00271085 2597 Reaktor Hello World 1 43743U 18096AA 19199.85362796 .00000664 00000-0 28099-4 0 9998 2 43743 97.4593 269.8176 0017040 226.1532 226.9007 15.26651209 35339 MinXSS-2 1 43758U 18099A 19199.19505404 .00000132 00000-0 17142-4 0 9996 2 43758 97.7438 270.8987 0014687 225.0105 134.9926 14.95420526 33849 AO-95 1 43770U 18099N 19199.15693690 .00000416 00000-0 43535-4 0 9991 2 43770 97.7443 270.6488 0013387 231.7166 128.2851 14.94778992 33823 RANGE-B 1 43772U 18099Q 19199.27769756 .00000633 00000-0 63273-4 0 9995 2 43772 97.7496 270.9438 0013350 217.2358 142.7938 14.94886931 33834 RANGE-A 1 43773U 18099R 19199.14899339 .00000507 00000-0 51806-4 0 9992 2 43773 97.7389 270.5134 0012652 217.6103 142.4234 14.94811370 33810 MOVE-II 1 43780U 18099Y 19199.65361876 -.00000026 00000-0 29311-5 0 9990 2 43780 97.7430 271.1853 0012583 227.5842 132.4315 14.95074312 33887 SNUSat 2 1 43782U 18099AA 19199.24687021 -.00000270 00000-0 -19407-4 0 9996 2 43782 97.7438 270.8263 0011910 217.5276 142.5114 14.95061929 33835 SnugLite 1 43784U 18099AC 19199.16841714 -.00000010 00000-0 43600-5 0 9994 2 43784 97.7405 270.6739 0013983 226.9200 133.0851 14.95145102 33839 ITASat 1 1 43786U 18099AE 19199.16639687 .00000050 00000-0 98491-5 0 9991 2 43786 97.7457 270.8329 0014074 225.7998 134.2068 14.95149222 33838 EAGLET 1 1 43790U 18099AJ 19199.17587676 -.00000307 00000-0 -22437-4 0 9990 2 43790 97.7448 270.9476 0012266 231.2246 128.7880 14.95522864 33530 ESEO 1 43792U 18099AL 19199.77577458 -.00000360 00000-0 -27221-4 0 9990 2 43792 97.7428 271.4928 0012188 225.7502 134.2719 14.95513616 33688 CSIM 1 43793U 18099AM 19199.15649572 .00000672 00000-0 65497-4 0 9991 2 43793 97.7393 270.7819 0011967 223.7423 136.2850 14.95713845 33566 Astrocast 0.1 1 43798U 18099AS 19199.14079947 .00000419 00000-0 42793-4 0 9991 2 43798 97.7433 270.9537 0011812 208.7904 151.2666 14.95737368 33828 JO-97 1 43803U 18099AX 19199.14858105 .00000630 00000-0 62389-4 0 9997 2 43803 97.7415 270.7291 0014102 226.2113 133.7941 14.95280599 33822 Suomi 100 1 43804U 18099AY 19199.14811075 .00000626 00000-0 61994-4 0 9999 2 43804 97.7414 270.7266 0014178 226.3918 133.6127 14.95279967 33834 Al Farabi 2 1 43805U 18099AZ 19199.81153454 .00000658 00000-0 64860-4 0 9994 2 43805 97.7415 271.3984 0014286 224.0662 135.9421 14.95339114 33935 PWSat 2 1 43814U 18099BJ 19199.78023812 .00010574 00000-0 84864-3 0 9997 2 43814 97.7790 272.6661 0009635 199.3383 160.7391 15.00223458 33362 CHOMPTT 1 43855U 18104G 19199.27614894 .00000650 00000-0 26286-4 0 9998 2 43855 85.0363 36.8794 0016187 199.7970 160.2658 15.22409504 32526 ISAT 1 43879U 18111D 19199.15593938 .00000637 00000-0 61896-4 0 9995 2 43879 97.7163 106.7358 0011660 288.4777 71.5177 14.96000422 28346 UWE-4 1 43880U 18111E 19199.79163398 -.00000322 00000-0 -23405-4 0 9997 2 43880 97.7170 107.4638 0011024 287.7633 72.2385 14.96243011 28445 Sparrow 1 43881U 18111F 19199.18358867 -.00000224 00000-0 -14651-4 0 9992 2 43881 97.7178 106.8887 0011047 289.2255 70.7770 14.96292778 28350 Lume 1 1 43908U 18111AJ 19199.27433774 .00000540 00000-0 24820-4 0 9991 2 43908 97.2879 103.7189 0020017 245.5430 114.3719 15.24370158 30959 FO-98 1 43933U 19003B 19199.74631399 .00000490 00000-0 24604-4 0 9999 2 43933 97.2799 256.3371 0017912 344.6723 159.1422 15.21659473 27627 FO-99 1 43937U 19003F 19199.71142171 .00000699 00000-0 31896-4 0 9997 2 43937 97.2759 256.6908 0023605 329.6565 126.0729 15.23614899 27650 Delphini 1 1 44030U 98067PW 19199.19904151 .00005831 00000-0 86040-4 0 9999 2 44030 51.6364 203.3785 0003892 261.5044 98.5507 15.56962183 26143 MYSat 1 1 44045U 18092F 19199.21304756 .00000862 00000-0 36150-4 0 9999 2 44045 51.6409 227.9251 0012377 187.8125 172.2661 15.35023759 23778 AstroCast 0.2 1 44083U 19018F 19199.73261296 .00000272 00000-0 15243-4 0 9993 2 44083 97.4667 259.4787 0012323 262.7565 97.2270 15.21397260 16488 AISTechSat 3 1 44103U 19018AB 19199.73807333 .00000447 00000-0 22219-4 0 9999 2 44103 97.4546 259.4940 0012140 283.5286 225.0542 15.22655116 16498 AISat 1 1 44104U 19018AC 19199.74467239 .00000365 00000-0 14578-4 0 9996 2 44104 97.5077 261.5200 0057933 321.5869 38.1252 15.30498158 16605 OBJECT A 1 44339U 19036A 19198.99545264 .00000161 00000-0 -11944-4 0 9996 2 44339 24.0007 61.9768 0011005 87.5473 272.6285 14.52652543 3299 OBJECT D 1 44342U 19036D 19199.60805711 .00000164 00000-0 -11215-4 0 9999 2 44342 24.0004 58.0376 0012567 90.5899 269.6030 14.53013620 3384 OBJECT H 1 44346U 19036H 19199.87590462 .00005711 00000-0 88530-4 0 9992 2 44346 28.5278 47.7970 0391385 354.9171 4.7519 14.96015287 3538 OBJECT J 1 44347U 19036J 19199.86693731 .00014012 00000-0 22474-3 0 9993 2 44347 28.5342 47.7383 0388192 354.9423 4.7320 14.96777127 3539 OBJECT K 1 44348U 19036K 19199.86723652 .00004825 00000-0 72607-4 0 9995 2 44348 28.5226 47.7188 0390567 354.6213 5.0266 14.96532937 3538 JAISAT-1 1 44419U 19038F 19198.87226758 .00000346 00000-0 23694-4 0 9997 2 44419 97.4906 160.5902 0021081 203.5815 156.4451 15.12246175 1874 LightSail-2 1 44420U 19036AC 19198.72203105 .00000253 00000-0 10187-4 0 9992 2 44420 24.0046 63.7106 0011544 85.6677 274.5144 14.52525270 1392 /EX